BTK7533 WIHH-WAHI

Flight info

Callsign BTK7533
Flight time 0h 44m
Altitude 33000
Route PW W17 CLP
Aircraft A320/M-SDE3FGHIRWY/LB1

Departure

Time 2026-04-27 10:52
Airport Halim Perdanakusuma International Airport (WIHH)

Arrival

Time 2026-04-27 11:37
Airport Yogyakarta International Airport (WAHI)
Time Latitude Longitude Altitude Speed Heading
2026-04-27 10:29 -6.26551 106.88735 95 ft 0 kts 336°
2026-04-27 10:43 -6.26566 106.88742 95 ft 3 kts 327°
2026-04-27 10:43 -6.26581 106.88754 95 ft 3 kts 310°
2026-04-27 10:43 -6.26591 106.88770 95 ft 3 kts 280°
2026-04-27 10:44 -6.26591 106.88786 95 ft 1 kts 245°
2026-04-27 10:44 -6.26591 106.88787 95 ft 0 kts 245°
2026-04-27 10:46 -6.26596 106.88776 94 ft 3 kts 245°
2026-04-27 10:47 -6.26603 106.88761 94 ft 2 kts 245°
2026-04-27 10:47 -6.26608 106.88751 95 ft 1 kts 245°
2026-04-27 10:47 -6.26623 106.88717 96 ft 9 kts 245°
2026-04-27 10:47 -6.26655 106.88649 94 ft 11 kts 245°
2026-04-27 10:48 -6.26684 106.88587 94 ft 9 kts 245°
2026-04-27 10:48 -6.26708 106.88534 95 ft 8 kts 245°
2026-04-27 10:48 -6.26730 106.88490 96 ft 6 kts 236°
2026-04-27 10:48 -6.26763 106.88480 94 ft 5 kts 171°
2026-04-27 10:49 -6.26791 106.88493 93 ft 4 kts 154°
2026-04-27 10:49 -6.26815 106.88505 94 ft 4 kts 155°
2026-04-27 10:49 -6.26844 106.88517 94 ft 7 kts 156°
2026-04-27 10:49 -6.26914 106.88532 93 ft 14 kts 200°
2026-04-27 10:50 -6.26975 106.88432 92 ft 20 kts 245°
2026-04-27 10:50 -6.27035 106.88301 93 ft 21 kts 245°
2026-04-27 10:50 -6.27098 106.88163 94 ft 22 kts 245°
2026-04-27 10:50 -6.27155 106.88015 95 ft 22 kts 276°
2026-04-27 10:51 -6.27175 106.87902 96 ft 11 kts 233°
2026-04-27 10:51 -6.27217 106.87909 98 ft 5 kts 82°
2026-04-27 10:51 -6.27206 106.87928 96 ft 0 kts 67°
2026-04-27 10:51 -6.27200 106.87941 95 ft 12 kts 67°
2026-04-27 10:52 -6.27048 106.88274 93 ft 89 kts 65°
2026-04-27 10:52 -6.26698 106.89029 97 ft 146 kts 65°
2026-04-27 10:52 -6.26208 106.90069 357 ft 171 kts 64°
2026-04-27 10:52 -6.25717 106.91160 1081 ft 173 kts 64°
2026-04-27 10:53 -6.25457 106.92349 1744 ft 181 kts 100°
2026-04-27 10:53 -6.26800 106.94821 2309 ft 229 kts 124°
2026-04-27 10:53 -6.27741 106.96206 2689 ft 253 kts 123°
2026-04-27 10:54 -6.28736 106.97737 3316 ft 267 kts 122°
2026-04-27 10:54 -6.29735 106.99336 4153 ft 272 kts 121°
2026-04-27 10:54 -6.30726 107.00961 5050 ft 274 kts 121°
2026-04-27 10:54 -6.31713 107.02611 5930 ft 276 kts 121°
2026-04-27 10:55 -6.32705 107.04283 6774 ft 280 kts 121°
2026-04-27 10:55 -6.33702 107.05975 7591 ft 283 kts 121°
2026-04-27 10:55 -6.34714 107.07694 8359 ft 288 kts 121°
2026-04-27 10:55 -6.35739 107.09437 9103 ft 292 kts 121°
2026-04-27 10:56 -6.36775 107.11203 9850 ft 294 kts 121°
2026-04-27 10:56 -6.37833 107.13006 10322 ft 310 kts 121°
2026-04-27 10:56 -6.38974 107.14943 10500 ft 333 kts 121°
2026-04-27 10:56 -6.40184 107.16989 10909 ft 345 kts 121°
2026-04-27 10:57 -6.41421 107.19076 11553 ft 350 kts 121°
2026-04-27 10:57 -6.42670 107.21189 12265 ft 352 kts 121°
2026-04-27 10:57 -6.43923 107.23315 12965 ft 354 kts 121°
2026-04-27 10:57 -6.45182 107.25459 13615 ft 357 kts 121°
2026-04-27 10:58 -6.46450 107.27620 14222 ft 361 kts 121°
2026-04-27 10:58 -6.47720 107.29785 14820 ft 365 kts 121°
2026-04-27 10:58 -6.49035 107.32018 15426 ft 369 kts 121°
2026-04-27 10:58 -6.50350 107.34243 16007 ft 372 kts 121°
2026-04-27 10:59 -6.51680 107.36494 16564 ft 375 kts 121°
2026-04-27 10:59 -6.53014 107.38765 17094 ft 379 kts 120°
2026-04-27 10:59 -6.54387 107.41039 17611 ft 382 kts 125°
2026-04-27 11:00 -6.58283 107.44650 18599 ft 390 kts 150°
2026-04-27 11:00 -6.60805 107.45758 19083 ft 394 kts 162°
2026-04-27 11:00 -6.63501 107.46361 19547 ft 398 kts 168°
2026-04-27 11:00 -6.66220 107.46892 19989 ft 400 kts 168°
2026-04-27 11:01 -6.68933 107.47423 20423 ft 403 kts 168°
2026-04-27 11:01 -6.71667 107.47958 20859 ft 406 kts 168°
2026-04-27 11:01 -6.74451 107.48505 21289 ft 409 kts 168°
2026-04-27 11:01 -6.77252 107.49059 21697 ft 412 kts 168°
2026-04-27 11:02 -6.80041 107.49612 22084 ft 415 kts 168°
2026-04-27 11:02 -6.82898 107.50254 22471 ft 417 kts 162°
2026-04-27 11:02 -6.85569 107.51392 22844 ft 419 kts 150°
2026-04-27 11:02 -6.87937 107.53054 23206 ft 421 kts 139°
2026-04-27 11:03 -6.89945 107.55202 23534 ft 424 kts 127°
2026-04-27 11:03 -6.91484 107.57747 23882 ft 427 kts 116°
2026-04-27 11:03 -6.92808 107.60436 24232 ft 430 kts 117°
2026-04-27 11:03 -6.94155 107.63128 24574 ft 432 kts 117°
2026-04-27 11:04 -6.95521 107.65825 24915 ft 434 kts 117°
2026-04-27 11:04 -6.96902 107.68541 25246 ft 436 kts 117°
2026-04-27 11:04 -6.98283 107.71263 25559 ft 439 kts 117°
2026-04-27 11:04 -6.99669 107.74011 25867 ft 441 kts 117°
2026-04-27 11:05 -7.01058 107.76774 26185 ft 443 kts 117°
2026-04-27 11:05 -7.02454 107.79555 26475 ft 445 kts 117°
2026-04-27 11:05 -7.03852 107.82344 26771 ft 447 kts 117°
2026-04-27 11:05 -7.05253 107.85141 27061 ft 449 kts 117°
2026-04-27 11:06 -7.06661 107.87947 27359 ft 451 kts 117°
2026-04-27 11:06 -7.08078 107.90769 27665 ft 452 kts 117°
2026-04-27 11:06 -7.09500 107.93606 27949 ft 454 kts 117°
2026-04-27 11:06 -7.10924 107.96450 28214 ft 456 kts 117°
2026-04-27 11:07 -7.12358 107.99308 28475 ft 458 kts 117°
2026-04-27 11:07 -7.13799 108.02176 28739 ft 459 kts 117°
2026-04-27 11:07 -7.15240 108.05048 29009 ft 461 kts 117°
2026-04-27 11:07 -7.16688 108.07934 29254 ft 462 kts 117°
2026-04-27 11:08 -7.18138 108.10825 29500 ft 464 kts 117°
2026-04-27 11:08 -7.19597 108.13736 29748 ft 466 kts 116°
2026-04-27 11:08 -7.21053 108.16646 29988 ft 467 kts 116°
2026-04-27 11:08 -7.22519 108.19579 30220 ft 469 kts 116°
2026-04-27 11:09 -7.23987 108.22519 30459 ft 470 kts 116°
2026-04-27 11:09 -7.25456 108.25455 30806 ft 469 kts 116°
2026-04-27 11:09 -7.26926 108.28387 31138 ft 468 kts 116°
2026-04-27 11:09 -7.28391 108.31306 31494 ft 466 kts 116°
2026-04-27 11:10 -7.29850 108.34217 31822 ft 465 kts 116°
2026-04-27 11:10 -7.30815 108.36147 32040 ft 465 kts 116°
2026-04-27 11:10 -7.32757 108.40033 32488 ft 463 kts 115°
2026-04-27 11:10 -7.34201 108.42923 32760 ft 462 kts 115°
2026-04-27 11:11 -7.36611 108.47743 32833 ft 457 kts 115°
2026-04-27 11:11 -7.39461 108.53434 32830 ft 455 kts 115°
2026-04-27 11:12 -7.42289 108.59096 32833 ft 455 kts 115°
2026-04-27 11:12 -7.45122 108.64788 32490 ft 455 kts 115°
2026-04-27 11:13 -7.46544 108.67642 32233 ft 455 kts 115°
2026-04-27 11:13 -7.47971 108.70496 31984 ft 456 kts 115°
2026-04-27 11:13 -7.49399 108.73351 31734 ft 457 kts 115°
2026-04-27 11:13 -7.50831 108.76211 31483 ft 458 kts 116°
2026-04-27 11:14 -7.52266 108.79082 31232 ft 459 kts 116°
2026-04-27 11:14 -7.53701 108.81959 30983 ft 460 kts 116°
2026-04-27 11:14 -7.55138 108.84841 30736 ft 461 kts 116°
2026-04-27 11:14 -7.56578 108.87725 30483 ft 461 kts 116°
2026-04-27 11:15 -7.58017 108.90614 30233 ft 460 kts 116°
2026-04-27 11:15 -7.59445 108.93485 29983 ft 459 kts 116°
2026-04-27 11:15 -7.60872 108.96353 29732 ft 456 kts 116°
2026-04-27 11:15 -7.62295 108.99212 29486 ft 455 kts 116°
2026-04-27 11:16 -7.63637 109.02080 29233 ft 452 kts 111°
2026-04-27 11:16 -7.64570 109.05103 28982 ft 450 kts 102°
2026-04-27 11:16 -7.65057 109.08219 28732 ft 449 kts 97°
2026-04-27 11:16 -7.65437 109.11333 28481 ft 447 kts 97°
2026-04-27 11:17 -7.65816 109.14437 28232 ft 446 kts 97°
2026-04-27 11:17 -7.66194 109.17496 27983 ft 444 kts 97°
2026-04-27 11:17 -7.66580 109.20581 27733 ft 443 kts 97°
2026-04-27 11:17 -7.66966 109.23655 27485 ft 441 kts 97°
2026-04-27 11:18 -7.67350 109.26720 27235 ft 439 kts 97°
2026-04-27 11:18 -7.67730 109.29771 26985 ft 438 kts 97°
2026-04-27 11:18 -7.68107 109.32808 26733 ft 436 kts 97°
2026-04-27 11:18 -7.68487 109.35836 26459 ft 434 kts 97°
2026-04-27 11:19 -7.68865 109.38839 25845 ft 430 kts 97°
2026-04-27 11:19 -7.69239 109.41820 25214 ft 427 kts 97°
2026-04-27 11:19 -7.69608 109.44780 24585 ft 423 kts 97°
2026-04-27 11:19 -7.69971 109.47703 23992 ft 419 kts 97°
2026-04-27 11:20 -7.70331 109.50607 23412 ft 415 kts 97°
2026-04-27 11:20 -7.70685 109.53480 22854 ft 410 kts 97°
2026-04-27 11:20 -7.71034 109.56321 22328 ft 406 kts 98°
2026-04-27 11:20 -7.71379 109.59122 21813 ft 401 kts 98°
2026-04-27 11:21 -7.71719 109.61898 21324 ft 396 kts 98°
2026-04-27 11:21 -7.72058 109.64638 20845 ft 391 kts 98°
2026-04-27 11:21 -7.72394 109.67351 20349 ft 387 kts 98°
2026-04-27 11:21 -7.72722 109.69993 19864 ft 382 kts 98°
2026-04-27 11:22 -7.73052 109.72672 19363 ft 379 kts 98°
2026-04-27 11:22 -7.73371 109.75268 18872 ft 376 kts 98°
2026-04-27 11:22 -7.73691 109.77878 18364 ft 373 kts 98°
2026-04-27 11:22 -7.74009 109.80464 17857 ft 371 kts 98°
2026-04-27 11:23 -7.74327 109.83032 17343 ft 368 kts 98°
2026-04-27 11:23 -7.74645 109.85591 16830 ft 366 kts 98°
2026-04-27 11:23 -7.74959 109.88127 16322 ft 364 kts 98°
2026-04-27 11:23 -7.75368 109.90633 15809 ft 360 kts 107°
2026-04-27 11:24 -7.76457 109.92886 15328 ft 357 kts 126°
2026-04-27 11:24 -7.78235 109.94617 14824 ft 356 kts 146°
2026-04-27 11:24 -7.80487 109.95604 14611 ft 355 kts 165°
2026-04-27 11:24 -7.82925 109.95797 14444 ft 359 kts 183°
2026-04-27 11:25 -7.85379 109.95272 14247 ft 361 kts 192°
2026-04-27 11:25 -7.87806 109.94630 14046 ft 360 kts 192°
2026-04-27 11:25 -7.90220 109.93977 13847 ft 359 kts 192°
2026-04-27 11:25 -7.92632 109.93321 13654 ft 359 kts 192°
2026-04-27 11:26 -7.95049 109.92668 13442 ft 358 kts 192°
2026-04-27 11:26 -7.97450 109.92023 13259 ft 357 kts 192°
2026-04-27 11:26 -7.99850 109.91381 13054 ft 356 kts 192°
2026-04-27 11:26 -8.02244 109.90739 12859 ft 355 kts 192°
2026-04-27 11:27 -8.04639 109.90101 12259 ft 359 kts 192°
2026-04-27 11:27 -8.07095 109.89458 11290 ft 369 kts 192°
2026-04-27 11:27 -8.09589 109.88807 10731 ft 366 kts 192°
2026-04-27 11:27 -8.12007 109.88171 10601 ft 350 kts 193°
2026-04-27 11:28 -8.14346 109.87817 10476 ft 332 kts 174°
2026-04-27 11:28 -8.16493 109.88433 10352 ft 315 kts 148°
2026-04-27 11:28 -8.18056 109.89873 10224 ft 300 kts 123°
2026-04-27 11:28 -8.18847 109.91783 9958 ft 294 kts 103°
2026-04-27 11:29 -8.19282 109.93775 9352 ft 291 kts 103°
2026-04-27 11:29 -8.19642 109.95757 8647 ft 290 kts 92°
2026-04-27 11:29 -8.19229 109.97716 8098 ft 286 kts 63°
2026-04-27 11:29 -8.17949 109.99239 7478 ft 290 kts 34°
2026-04-27 11:30 -8.16072 109.99971 6801 ft 289 kts 13°
2026-04-27 11:30 -8.14166 110.00379 6532 ft 271 kts 14°
2026-04-27 11:30 -8.12444 110.01072 6169 ft 264 kts 33°
2026-04-27 11:30 -8.11054 110.02234 5979 ft 260 kts 50°
2026-04-27 11:31 -8.09899 110.03641 5556 ft 260 kts 52°
2026-04-27 11:31 -8.08754 110.05060 5162 ft 259 kts 52°
2026-04-27 11:31 -8.07615 110.06475 4747 ft 259 kts 52°
2026-04-27 11:31 -8.06487 110.07877 4260 ft 256 kts 53°
2026-04-27 11:32 -8.05370 110.09260 3788 ft 251 kts 52°
2026-04-27 11:32 -8.04311 110.10569 3712 ft 233 kts 52°
2026-04-27 11:32 -8.03292 110.11823 3629 ft 230 kts 52°
2026-04-27 11:32 -8.02279 110.13066 3540 ft 229 kts 51°
2026-04-27 11:33 -8.01095 110.14082 3360 ft 220 kts 37°
2026-04-27 11:33 -7.99854 110.14958 3014 ft 216 kts 37°
2026-04-27 11:33 -7.98632 110.15816 2714 ft 211 kts 37°
2026-04-27 11:33 -7.97401 110.16597 2427 ft 207 kts 21°
2026-04-27 11:34 -7.96017 110.16628 2175 ft 199 kts 340°
2026-04-27 11:34 -7.94995 110.15772 1889 ft 190 kts 302°
2026-04-27 11:34 -7.94347 110.14688 1649 ft 170 kts 304°
2026-04-27 11:34 -7.93695 110.13760 1408 ft 155 kts 307°
2026-04-27 11:35 -7.93189 110.12837 1193 ft 147 kts 291°
2026-04-27 11:35 -7.92827 110.11883 1012 ft 144 kts 291°
2026-04-27 11:35 -7.92457 110.10950 824 ft 143 kts 294°
2026-04-27 11:35 -7.92094 110.10021 637 ft 142 kts 291°
2026-04-27 11:36 -7.91749 110.09088 443 ft 142 kts 290°
2026-04-27 11:36 -7.91417 110.08157 303 ft 141 kts 290°
2026-04-27 11:36 -7.91082 110.07224 128 ft 141 kts 290°
2026-04-27 11:36 -7.90753 110.06334 44 ft 127 kts 291°
2026-04-27 11:37 -7.90498 110.05631 43 ft 82 kts 290°
2026-04-27 11:37 -7.90365 110.05265 38 ft 35 kts 290°
2026-04-27 11:37 -7.90284 110.05042 37 ft 34 kts 290°
2026-04-27 11:37 -7.90203 110.04825 39 ft 33 kts 290°
2026-04-27 11:38 -7.90121 110.04600 39 ft 34 kts 288°
2026-04-27 11:38 -7.90032 110.04469 42 ft 19 kts 326°
2026-04-27 11:38 -7.89919 110.04425 40 ft 13 kts 11°
2026-04-27 11:38 -7.89902 110.04497 40 ft 11 kts 109°
2026-04-27 11:39 -7.89925 110.04562 38 ft 9 kts 109°
2026-04-27 11:39 -7.89944 110.04615 39 ft 8 kts 111°
2026-04-27 11:39 -7.89972 110.04687 39 ft 17 kts 110°
2026-04-27 11:39 -7.90020 110.04818 36 ft 22 kts 110°
2026-04-27 11:40 -7.90074 110.04969 38 ft 24 kts 109°
2026-04-27 11:40 -7.90108 110.05094 36 ft 14 kts 64°
2026-04-27 11:40 -7.90020 110.05134 38 ft 14 kts 19°
2026-04-27 11:40 -7.89963 110.05192 38 ft 12 kts 100°
2026-04-27 11:41 -7.89993 110.05267 38 ft 11 kts 111°
2026-04-27 11:41 -7.90018 110.05333 38 ft 9 kts 110°
2026-04-27 11:41 -7.90040 110.05391 38 ft 8 kts 110°
2026-04-27 11:41 -7.90059 110.05441 38 ft 7 kts 111°
2026-04-27 11:42 -7.90081 110.05498 38 ft 10 kts 110°
2026-04-27 11:42 -7.90104 110.05562 38 ft 9 kts 110°
2026-04-27 11:42 -7.90124 110.05617 38 ft 8 kts 111°
2026-04-27 11:42 -7.90135 110.05653 38 ft 2 kts 87°
2026-04-27 11:43 -7.90118 110.05665 38 ft 5 kts 25°
2026-04-27 11:43 -7.90087 110.05675 37 ft 4 kts 20°
2026-04-27 11:43 -7.90062 110.05685 38 ft 3 kts 20°
2026-04-27 11:43 -7.90061 110.05685 38 ft 0 kts 20°
2026-04-27 11:44 -7.90058 110.05686 38 ft 1 kts 20°
2026-04-27 11:44 -7.90059 110.05686 38 ft 0 kts 20°